COSMOS 886 DEB, 15555

Orbit data source: Space-Track

COSMOS 886 DEB, 15555 is space debris in LEO originally from a launch on Mon, 27 Dec 1976 UTC launched from the Tyuratam Missile And Space Complex (TTMTR). Debris objects in space refer to the collection of defunct objects orbiting the Earth. Examples of debris include non-operational satellites, rocket bodies, and fragments generated from explosions, collisions, or faulty payload assembly.

Loading next visibility...
Identifier
15555, 1976-126BT
Orbit
LEO
Country
Flag of CISCIS
Related business
Manufacturer
Unknown
Mission
Spacecraft
Bus & Motor
Unknown
Mass
Unknown
Launch date (UTC)
1976-12-27 (49 years ago)
Launch vehicle
Unknown
Launch site
Tyuratam Missile And Space Complex (TTMTR)
Object type
Payload
Rocket body
Debris
Shape & HBR
Unknown shape, 0.1 m
Radar Cross Section
Small (<0.1 m²)

Expand to show TLE details & history
Last TLE update: 1 day ago

TLE from 1 day ago
0 COSMOS 886 DEB
1 15555U 76126BT  26129.37071887  .00000167  00000-0  24435-3 0  9999
2 15555  65.7794 115.9518 0960386 195.0627 161.9819 12.53480819561955
Epoch: 2026-05-09T08:53Z
TLE epoch observation values (Epoch: 2026-05-09T08:53:50.110Z)
Latitude
-0.00004°
Longitude
115.30387°
Altitude
2,172.892 km
Speed
6.507 km/s
True Right ascension
07h 43m 48s
True Declination
0° 00' 00"
Sunlit
Object was in daylight at epoch
Visualization orbit readout
Latitude
Unknown
Longitude
Unknown
Altitude
Unknown
Speed
Unknown
Apparent Right ascension
Unknown
Apparent Declination
Unknown
Sunlit
N/A
Visualization observer readout
Local Sidereal Time
21:19:49
Azimuth
Unknown
Elevation
Unknown
Doppler factor
Unknown
Orbital elements
Apogee altitude
2,200.227 km
Perigee altitude
696.897 km
Semi-major axis
7,826.699 km
Eccentricity
0.09604
Inclination
65.7794°
RAAN
115.9518°
Arg. of periapsis
195.0627°
True anomaly
165.03459°
Mean anomaly
161.9819°
Eccentric anomaly
163.54095°
Mean motion
3.13455 °/min
Orbital period
114.85 mins
BSTAR
0.00024435
Loading maneuver chart data...
Computing Atmospheric mass density...
Loading historical data...
Loading historical data...
Loading historical data...
Loading historical data...
Loading historical data...
Loading historical data...
Loading historical data...

Documentation

Showing up to 5 results
|